SCP
0 0 0 0 0 0 0 0 0 0 0 0 0 0 0 0 0 0 0 0 0 0 0 0 0 0 0 0 0 0 0 0
0 0 0 0 0 0 0 0 0 0 0 -0 0 0 0 0 0 0 0 0 0 0 -0 -0 0 0 0 0 0 0 0 0
0 0 0 0 0 0 0 0 0 0 0 0 0 0 0 0 0 0 0 0 0 -0 -0 0 0 0 0 0 0 0 0 0
0 0 0 0 0 0 0 0 0 0 0 0 0 0 0 0 0 0 0 0 0 -0 -0 0 0 0 0 0 0 0 0 0
0 0 0 0 0 0 0 0 0 0 0 0 0 0 0 0 0 0 0 0 -0 -0 0 0 0 0 0 0 0 0 0 0
0 0 0 0 0 0 0 0 0 0 0 0 0 0 0 0 0 0 0 0 -0 0 0 0 0 0 0 0 0 0 0 0
0 0 0 0 0 0 0 0 0 0 0 0 0 0 0 0 0 0 0 0 -0 0 0 0 0 0 0 0 0 0 0 0
0 0 0 0 0 0 0 0 0 0 0 0 0 0 0 0 0 0 0 0 -0 0 0 0 0 0 0 0 0 0 0 0
0 0 0 0 0 0 0 0 0 0 0 0 0 0 0 0 0 0 0 0 0 0 0 0 0 0 0 0 0 0 0 0
0 0 0 0 0 0 0 0 0 0 0 -0 0 0 0 0 0 0 0 0 0 0 0 0 0 0 0 -0 -0 0 0 0
0 0 0 0 0 0 -0 0 0 0 0 -0 0 0 0 0 0 0 0 0 0 0 0 0 0 0 0 -0 -0 -0 -0 0
0 0 -0 -0 -0 -0 0 0 0 0 0 0 0 -0 0 0 0 0 0 0 0 0 0 0 0 0 0 0 0 0 0 0
0 -0 -0 -0 0 0 0 0 0 0 0 0 0 0 0 0 0 0 0 0 0 0 0 0 0 0 0 0 0 0 -0 0
0 0 0 0 0 0 0 0 0 0 0 0 0 0 0 0 0 0 0 0 0 0 0 0 0 -0 -0 -0 0 -0 -0 0
0 0 0 0 0 0 0 0 0 0 0 0 0 0 0 0 0 0 0 0 -0 -0 -0 -0 -0 -0 -0 0 0 -0 -0 0
0 0 0 0 0 0 0 0 0 0 0 0 0 0 0 0 0 0 0 0 -0 0 0 0 0 0 0 0 -0 -0 0 0
0 0 0 0 0 0 0 0 0 0 0 0 0 0 0 0 0 0 0 0 0 0 0 0 0 0 0 -0 0 0 0 0
0 0 0 0 0 0 0 0 0 0 0 0 0 0 0 0 0 0 0 0 0 0 0 0 0 0 0 0 0 0 0 0
0 0 0 0 0 0 0 0 0 0 0 0 0 0 0 0 0 0 0 0 0 0 0 0 0 0 0 0 0 0 -0 -0
0 0 0 0 0 0 0 0 0 0 0 0 0 0 0 0 0 0 0 0 0 0 0 0 0 0 0 0 0 -0 -0 -0
Wind_Speed_500mb
46 61 68 49 52 59 63 65 65 66 74 80 70 56 53 57 53 50 43 46 46 52 53 50 44 38 46 40 36 33 29 25
68 68 64 61 58 51 59 69 72 78 78 81 67 55 50 51 51 41 37 37 33 44 50 44 34 36 42 35 23 19 14 11
54 52 61 63 68 77 72 71 74 82 85 71 60 51 46 44 46 33 29 29 36 41 49 36 31 36 33 26 18 11 13 5
60 72 79 81 76 78 71 79 88 76 60 60 48 48 46 39 40 28 21 20 35 37 40 33 31 28 26 23 18 19 15 10
75 75 69 77 74 69 80 69 63 64 59 56 47 43 47 44 37 29 20 16 29 31 35 33 24 27 23 30 29 27 17 21
79 79 83 73 72 79 76 71 67 64 56 53 53 43 55 45 31 25 19 16 24 29 29 29 24 22 25 29 26 25 27 28
78 78 71 80 87 76 79 70 65 56 55 64 66 46 46 29 24 21 13 15 21 28 25 23 25 26 25 30 18 20 39 46
65 77 88 87 77 68 57 49 67 71 48 39 40 41 36 26 17 20 14 20 19 14 16 28 26 28 30 20 22 33 51 62
82 79 72 71 64 57 60 55 58 52 50 38 37 34 24 21 16 21 23 22 15 16 37 36 31 27 28 25 33 52 61 67
76 69 67 62 57 51 49 49 46 41 33 32 25 19 19 19 27 31 25 20 33 47 46 42 36 34 28 28 45 62 70 73
65 63 67 63 56 46 43 39 30 22 25 25 20 4 26 29 34 35 38 50 49 52 43 48 49 46 50 50 63 72 71 72
59 63 67 68 51 31 19 16 16 19 25 20 24 38 48 45 46 51 55 54 47 49 55 59 64 69 72 74 75 75 77 74
55 53 44 49 13 19 22 25 26 19 33 63 51 55 51 56 61 61 60 58 51 54 56 64 79 89 85 83 82 80 74 64
43 38 39 45 47 42 37 37 36 64 70 65 62 61 60 57 57 58 50 57 61 66 74 79 86 86 83 78 71 66 62 61
37 34 37 42 46 47 43 47 57 58 56 63 62 60 58 53 57 61 71 64 65 73 86 92 91 89 82 77 72 70 66 54
32 33 36 39 46 53 55 58 55 57 60 60 58 58 61 65 67 79 86 94 104 95 89 92 82 73 68 66 64 64 60 44
33 37 38 42 46 46 44 51 49 58 60 62 62 65 69 81 94 107 116 118 110 96 85 77 72 68 67 62 56 57 61 58
38 40 37 43 48 41 44 51 56 59 67 68 70 79 94 102 109 113 113 108 101 92 81 75 64 57 59 60 61 59 56 52
34 36 35 44 48 39 46 53 61 69 76 82 88 96 104 101 99 103 105 101 94 80 75 69 66 66 63 60 57 51 45 41
42 45 40 37 38 44 48 59 68 74 79 89 100 104 105 105 106 101 95 89 83 78 69 65 64 62 59 54 48 43 37 31
Wind_Direction_500mb
322 323 322 308 300 296 299 295 290 292 292 304 304 293 295 296 291 266 271 273 274 288 294 291 285 272 265 275 278 287 293 295
319 316 309 303 305 300 296 297 296 296 296 298 299 293 294 298 303 261 271 275 285 283 296 287 280 274 262 268 274 266 266 261
313 306 304 302 302 304 299 296 294 296 298 295 293 293 287 294 301 264 273 274 270 283 300 291 278 266 259 259 245 212 173 159
311 308 306 301 303 300 292 296 298 301 294 295 292 292 287 288 294 262 271 267 274 286 295 289 274 254 255 233 188 176 166 176
308 305 297 297 297 292 295 294 293 293 293 290 286 287 284 281 287 254 266 266 280 285 289 292 263 241 228 178 174 166 155 128
304 299 300 296 292 295 291 291 288 289 287 278 279 283 278 277 274 250 273 267 273 275 282 282 247 219 184 168 162 152 134 117
301 297 292 293 293 290 290 285 277 275 272 274 280 273 271 259 259 250 262 255 257 266 273 238 207 177 172 150 163 161 132 121
298 296 295 297 293 293 278 262 273 282 269 268 264 261 260 241 230 254 205 237 246 256 211 169 166 164 170 178 162 154 129 122
305 308 301 294 292 287 282 274 271 265 269 261 250 242 236 207 237 231 194 212 205 193 161 148 147 148 138 149 155 146 137 130
318 313 310 309 304 296 283 272 268 267 254 252 226 213 181 215 201 180 186 183 163 146 145 133 123 127 131 156 159 140 133 128
324 321 316 311 304 292 280 270 264 242 227 200 172 224 173 180 175 173 162 155 148 146 145 128 121 123 131 142 134 132 131 122
333 332 325 316 304 284 256 234 198 187 174 169 152 161 151 155 161 161 160 157 157 154 139 130 131 133 134 135 134 131 123 120
346 339 348 5 69 136 141 149 142 126 140 146 153 151 151 150 146 150 154 153 157 151 143 142 140 137 135 133 129 125 124 123
0 13 43 69 84 99 115 127 137 144 142 142 144 144 145 144 145 140 141 146 146 142 143 139 133 129 129 126 122 116 113 119
16 45 65 86 100 109 122 131 143 143 140 140 142 141 139 144 146 145 130 134 135 133 130 130 126 126 126 124 123 127 127 131
41 59 72 86 100 110 127 135 132 130 137 138 138 139 141 138 133 128 128 127 123 123 122 120 121 124 126 126 124 121 125 121
65 75 80 88 96 103 126 134 136 134 133 133 133 133 131 130 130 129 127 126 123 122 122 121 119 121 123 125 127 125 119 116
69 76 87 94 97 111 124 129 132 131 129 131 131 130 130 131 128 122 124 124 124 122 120 123 128 128 124 127 126 125 121 118
77 87 94 103 108 116 121 127 129 128 128 129 131 130 124 122 123 124 127 128 130 127 127 132 129 128 128 126 124 120 118 117
85 89 93 102 112 120 124 127 126 128 131 130 126 126 127 126 128 129 130 131 129 126 124 127 131 130 131 129 125 122 117 113
Wind_Speed_850mb
46 61 68 49 52 59 63 65 65 66 74 80 70 56 53 57 53 50 43 46 46 52 53 50 44 38 46 40 36 33 29 25
68 68 64 61 58 51 59 69 72 78 78 81 67 55 50 51 51 41 37 37 33 44 50 44 34 36 42 35 23 19 14 11
54 52 61 63 68 77 72 71 74 82 85 71 60 51 46 44 46 33 29 29 36 41 49 36 31 36 33 26 18 11 13 5
60 72 79 81 76 78 71 79 88 76 60 60 48 48 46 39 40 28 21 20 35 37 40 33 31 28 26 23 18 19 15 10
75 75 69 77 74 69 80 69 63 64 59 56 47 43 47 44 37 29 20 16 29 31 35 33 24 27 23 30 29 27 17 21
79 79 83 73 72 79 76 71 67 64 56 53 53 43 55 45 31 25 19 16 24 29 29 29 24 22 25 29 26 25 27 28
78 78 71 80 87 76 79 70 65 56 55 64 66 46 46 29 24 21 13 15 21 28 25 23 25 26 25 30 18 20 39 46
65 77 88 87 77 68 57 49 67 71 48 39 40 41 36 26 17 20 14 20 19 14 16 28 26 28 30 20 22 33 51 62
82 79 72 71 64 57 60 55 58 52 50 38 37 34 24 21 16 21 23 22 15 16 37 36 31 27 28 25 33 52 61 67
76 69 67 62 57 51 49 49 46 41 33 32 25 19 19 19 27 31 25 20 33 47 46 42 36 34 28 28 45 62 70 73
65 63 67 63 56 46 43 39 30 22 25 25 20 4 26 29 34 35 38 50 49 52 43 48 49 46 50 50 63 72 71 72
59 63 67 68 51 31 19 16 16 19 25 20 24 38 48 45 46 51 55 54 47 49 55 59 64 69 72 74 75 75 77 74
55 53 44 49 13 19 22 25 26 19 33 63 51 55 51 56 61 61 60 58 51 54 56 64 79 89 85 83 82 80 74 64
43 38 39 45 47 42 37 37 36 64 70 65 62 61 60 57 57 58 50 57 61 66 74 79 86 86 83 78 71 66 62 61
37 34 37 42 46 47 43 47 57 58 56 63 62 60 58 53 57 61 71 64 65 73 86 92 91 89 82 77 72 70 66 54
32 33 36 39 46 53 55 58 55 57 60 60 58 58 61 65 67 79 86 94 104 95 89 92 82 73 68 66 64 64 60 44
33 37 38 42 46 46 44 51 49 58 60 62 62 65 69 81 94 107 116 118 110 96 85 77 72 68 67 62 56 57 61 58
38 40 37 43 48 41 44 51 56 59 67 68 70 79 94 102 109 113 113 108 101 92 81 75 64 57 59 60 61 59 56 52
34 36 35 44 48 39 46 53 61 69 76 82 88 96 104 101 99 103 105 101 94 80 75 69 66 66 63 60 57 51 45 41
42 45 40 37 38 44 48 59 68 74 79 89 100 104 105 105 106 101 95 89 83 78 69 65 64 62 59 54 48 43 37 31
Wind_Direction_850mb
322 323 322 308 300 296 299 295 290 292 292 304 304 293 295 296 291 266 271 273 274 288 294 291 285 272 265 275 278 287 293 295
319 316 309 303 305 300 296 297 296 296 296 298 299 293 294 298 303 261 271 275 285 283 296 287 280 274 262 268 274 266 266 261
313 306 304 302 302 304 299 296 294 296 298 295 293 293 287 294 301 264 273 274 270 283 300 291 278 266 259 259 245 212 173 159
311 308 306 301 303 300 292 296 298 301 294 295 292 292 287 288 294 262 271 267 274 286 295 289 274 254 255 233 188 176 166 176
308 305 297 297 297 292 295 294 293 293 293 290 286 287 284 281 287 254 266 266 280 285 289 292 263 241 228 178 174 166 155 128
304 299 300 296 292 295 291 291 288 289 287 278 279 283 278 277 274 250 273 267 273 275 282 282 247 219 184 168 162 152 134 117
301 297 292 293 293 290 290 285 277 275 272 274 280 273 271 259 259 250 262 255 257 266 273 238 207 177 172 150 163 161 132 121
298 296 295 297 293 293 278 262 273 282 269 268 264 261 260 241 230 254 205 237 246 256 211 169 166 164 170 178 162 154 129 122
305 308 301 294 292 287 282 274 271 265 269 261 250 242 236 207 237 231 194 212 205 193 161 148 147 148 138 149 155 146 137 130
318 313 310 309 304 296 283 272 268 267 254 252 226 213 181 215 201 180 186 183 163 146 145 133 123 127 131 156 159 140 133 128
324 321 316 311 304 292 280 270 264 242 227 200 172 224 173 180 175 173 162 155 148 146 145 128 121 123 131 142 134 132 131 122
333 332 325 316 304 284 256 234 198 187 174 169 152 161 151 155 161 161 160 157 157 154 139 130 131 133 134 135 134 131 123 120
346 339 348 5 69 136 141 149 142 126 140 146 153 151 151 150 146 150 154 153 157 151 143 142 140 137 135 133 129 125 124 123
0 13 43 69 84 99 115 127 137 144 142 142 144 144 145 144 145 140 141 146 146 142 143 139 133 129 129 126 122 116 113 119
16 45 65 86 100 109 122 131 143 143 140 140 142 141 139 144 146 145 130 134 135 133 130 130 126 126 126 124 123 127 127 131
41 59 72 86 100 110 127 135 132 130 137 138 138 139 141 138 133 128 128 127 123 123 122 120 121 124 126 126 124 121 125 121
65 75 80 88 96 103 126 134 136 134 133 133 133 133 131 130 130 129 127 126 123 122 122 121 119 121 123 125 127 125 119 116
69 76 87 94 97 111 124 129 132 131 129 131 131 130 130 131 128 122 124 124 124 122 120 123 128 128 124 127 126 125 121 118
77 87 94 103 108 116 121 127 129 128 128 129 131 130 124 122 123 124 127 128 130 127 127 132 129 128 128 126 124 120 118 117
85 89 93 102 112 120 124 127 126 128 131 130 126 126 127 126 128 129 130 131 129 126 124 127 131 130 131 129 125 122 117 113